Orbital Elements at Epoch 2459200.5 (2020-Dec-17.0) TDB
Reference: JPL 18 (heliocentric ecliptic J2000)
Element | Value | Uncertainty (1-sigma) | Units |
e | .1374512170426753 | 5.0641e-08 | |
a | 2.706060083303991 | 1.493e-08 | au |
q | 2.334108831463254 | 1.3606e-07 | au |
i | 10.16894810173504 | 5.7253e-06 | deg |
node | 4.384539452407206 | 2.3921e-05 | deg |
peri | 169.0215902279798 | 2.894e-05 | deg |
M | 225.7207526398215 | 1.668e-05 | deg |
tp | 2459806.972310361127 (2022-Aug-15.47231036) | 7.7414e-05 | TDB |
period | 1625.940240373683 4.45 | 1.3456e-05 3.684e-08 | d yr |
n | .2214103514144301 | 1.8324e-09 | deg/d |
Q | 3.078011335144728 | 1.6982e-08 | au |
|
| | Orbit Determination Parameters
Additional Information
|